Time,TemperatureF,DewpointF,PressureIn,WindDirection,WindDirectionDegrees,WindSpeedMPH,WindSpeedGustMPH,Humidity,HourlyPrecipIn,Conditions,Clouds,dailyrainin,SolarRadiationWatts/m^2,SoftwareType,DateUTC
2013-06-06 00:23:00,62.0,48.0,30.01,NNW,332,1.0,2.0,62,-99.99,,,-99.99,1.000000,,2013-06-06 04:23:00,
2013-06-06 00:33:00,62.0,48.0,30.01,NNW,332,1.0,2.0,62,-99.99,,,-99.99,1.000000,,2013-06-06 04:33:00,
2013-06-06 00:40:00,63.0,48.0,30.01,NNW,345,3.0,3.0,58,-99.99,,,-99.99,0.000000,,2013-06-06 04:40:00,
2013-06-06 01:22:00,63.0,48.0,30.01,NNW,345,3.0,3.0,58,-99.99,,,-99.99,0.000000,,2013-06-06 05:22:00,
2013-06-06 01:32:00,63.0,48.0,30.01,NNW,345,3.0,3.0,58,-99.99,,,-99.99,0.000000,,2013-06-06 05:32:00,
2013-06-06 01:40:00,60.0,48.0,30.02,NW,312,3.0,5.0,65,-99.99,,,-99.99,0.000000,,2013-06-06 05:40:00,
2013-06-06 02:22:00,60.0,48.0,30.02,NW,312,3.0,5.0,65,-99.99,,,-99.99,0.000000,,2013-06-06 06:22:00,
2013-06-06 03:22:00,65.0,47.0,30.01,NE,47,1.0,3.0,51,-99.99,,,-99.99,0.000000,,2013-06-06 07:22:00,
2013-06-06 04:22:00,65.0,47.0,30.01,NE,52,0.0,2.0,52,-99.99,,,-99.99,0.000000,,2013-06-06 08:22:00,
2013-06-06 05:22:00,64.0,48.0,29.99,East,86,5.0,8.0,56,-99.99,,,-99.99,0.000000,,2013-06-06 09:22:00,
2013-06-06 07:22:00,65.0,47.0,29.97,NNW,338,2.0,4.0,52,-99.99,,,-99.99,0.000000,,2013-06-06 11:22:00,
2013-06-06 08:22:00,63.0,47.0,29.97,NW,312,2.0,3.0,56,-99.99,,,-99.99,0.000000,,2013-06-06 12:22:00,
2013-06-06 10:22:00,66.0,47.0,29.97,ESE,106,1.0,5.0,51,-99.99,,,-99.99,28.000000,,2013-06-06 14:22:00,
2013-06-06 11:23:00,70.0,48.0,29.98,North,1,1.0,3.0,46,-99.99,,,-99.99,332.000000,,2013-06-06 15:23:00,
2013-06-06 12:40:00,73.0,51.0,30.00,WSW,251,1.0,3.0,45,-99.99,,,-99.99,752.000000,,2013-06-06 16:40:00,
2013-06-06 13:22:00,73.0,51.0,30.00,WSW,251,1.0,3.0,45,-99.99,,,-99.99,752.000000,,2013-06-06 17:22:00,
2013-06-06 13:32:00,73.0,51.0,30.00,WSW,251,1.0,3.0,45,-99.99,,,-99.99,752.000000,,2013-06-06 17:32:00,
2013-06-06 13:40:00,75.0,46.0,30.01,West,280,2.0,3.0,35,-99.99,,,-99.99,928.000000,,2013-06-06 17:40:00,
2013-06-06 14:22:00,75.0,46.0,30.01,West,280,2.0,3.0,35,-99.99,,,-99.99,928.000000,,2013-06-06 18:22:00,
2013-06-06 14:33:00,75.0,46.0,30.01,West,280,2.0,3.0,35,-99.99,,,-99.99,928.000000,,2013-06-06 18:33:00,
2013-06-06 14:40:00,75.0,49.0,30.01,West,263,2.0,3.0,41,-99.99,,,-99.99,1027.000000,,2013-06-06 18:40:00,
2013-06-06 15:23:00,75.0,49.0,30.01,West,263,2.0,3.0,41,-99.99,,,-99.99,1027.000000,,2013-06-06 19:23:00,
2013-06-06 15:33:00,75.0,49.0,30.01,West,263,2.0,3.0,41,-99.99,,,-99.99,1027.000000,,2013-06-06 19:33:00,
2013-06-06 15:40:00,77.0,50.0,30.01,WNW,282,3.0,5.0,38,-99.99,,,-99.99,1057.000000,,2013-06-06 19:40:00,
2013-06-06 16:22:00,77.0,50.0,30.01,WNW,282,3.0,5.0,38,-99.99,,,-99.99,1057.000000,,2013-06-06 20:22:00,
2013-06-06 16:33:00,77.0,50.0,30.01,WNW,282,3.0,5.0,38,-99.99,,,-99.99,1057.000000,,2013-06-06 20:33:00,
2013-06-06 16:40:00,76.0,48.0,30.01,West,275,3.0,5.0,38,-99.99,,,-99.99,1046.000000,,2013-06-06 20:40:00,
2013-06-06 17:22:00,76.0,48.0,30.01,West,275,3.0,5.0,38,-99.99,,,-99.99,1046.000000,,2013-06-06 21:22:00,
2013-06-06 17:33:00,76.0,48.0,30.01,West,275,3.0,5.0,38,-99.99,,,-99.99,1046.000000,,2013-06-06 21:33:00,
2013-06-06 17:40:00,74.0,50.0,30.00,WNW,282,3.0,5.0,42,-99.99,,,-99.99,972.000000,,2013-06-06 21:40:00,
2013-06-06 18:23:00,74.0,50.0,30.00,WNW,282,3.0,5.0,42,-99.99,,,-99.99,972.000000,,2013-06-06 22:23:00,
2013-06-06 18:33:00,74.0,50.0,30.00,WNW,282,3.0,5.0,42,-99.99,,,-99.99,972.000000,,2013-06-06 22:33:00,
2013-06-06 18:40:00,73.0,38.0,29.99,WNW,282,4.0,6.0,28,-99.99,,,-99.99,854.000000,,2013-06-06 22:40:00,
2013-06-06 19:22:00,73.0,38.0,29.99,WNW,282,4.0,6.0,28,-99.99,,,-99.99,854.000000,,2013-06-06 23:22:00,
2013-06-06 19:33:00,73.0,38.0,29.99,WNW,282,4.0,6.0,28,-99.99,,,-99.99,854.000000,,2013-06-06 23:33:00,
2013-06-06 19:40:00,73.0,39.0,29.98,WNW,285,3.0,6.0,29,-99.99,,,-99.99,697.000000,,2013-06-06 23:40:00,
2013-06-06 20:22:00,73.0,39.0,29.98,WNW,285,3.0,6.0,29,-99.99,,,-99.99,697.000000,,2013-06-07 00:22:00,
2013-06-06 20:32:00,73.0,39.0,29.98,WNW,285,3.0,6.0,29,-99.99,,,-99.99,697.000000,,2013-06-07 00:32:00,
2013-06-06 20:40:00,73.0,41.0,29.97,WNW,288,5.0,7.0,32,-99.99,,,-99.99,499.000000,,2013-06-07 00:40:00,
2013-06-06 21:22:00,73.0,41.0,29.97,WNW,288,5.0,7.0,32,-99.99,,,-99.99,499.000000,,2013-06-07 01:22:00,
2013-06-06 21:40:00,72.0,42.0,29.96,WNW,295,5.0,7.0,34,-99.99,,,-99.99,286.000000,,2013-06-07 01:40:00,
2013-06-06 22:32:00,72.0,42.0,29.96,WNW,295,5.0,7.0,34,-99.99,,,-99.99,286.000000,,2013-06-07 02:32:00,
2013-06-06 22:40:00,68.0,39.0,29.97,WNW,297,5.0,8.0,35,-99.99,,,-99.99,99.000000,,2013-06-07 02:40:00,
2013-06-06 23:22:00,68.0,39.0,29.97,WNW,297,5.0,8.0,35,-99.99,,,-99.99,99.000000,,2013-06-07 03:22:00,
2013-06-06 23:33:00,68.0,39.0,29.97,WNW,297,5.0,8.0,35,-99.99,,,-99.99,99.000000,,2013-06-07 03:33:00,
2013-06-06 23:40:00,66.0,39.0,29.97,SSW,211,1.0,3.0,37,-99.99,,,-99.99,1.000000,,2013-06-07 03:40:00,